Погода в Китире

Греция     36°14′51″N   22°59′01″E
темп.,
°C
ветер,
м/с
пор.,
м/с
влажн.,
%
обл.,
%
осадки,
мм/ч
давл.,
гПа
погр.,
м
23 сентября, чт
чт2300:00+24з8107147 0.0 1012527
03:00+23зсз810625 0.0 1012506
06:00+21св787782 0.0 1012673
09:00+20св10107589 0.4 10151127
12:00+20св10106969 0.3 10171134
15:00+21св111157100 0.3 10171191
18:00+20св996299 0.0 10171211
21:00+19св9966100 0.1 10181148
24 сентября, пт
пт2400:00+19св9106252 0.0 10191298
03:00+19св910540 0.0 10191050
06:00+18св89560 0.0 1019872
09:00+20св78530 0.0 10201136
12:00+21св66460 0.0 10201122
15:00+22ссв22380 0.0 10191037
18:00+21з556140 0.0 10181065
21:00+21з67712 0.0 1019632
25 сентября, сб
сб2500:00+20зсз34750 0.0 1019238
03:00+20ссз34770 0.0 1018216
06:00+19ссз23810 0.0 1018172
09:00+21ссв22640 0.0 1019333
12:00+24всв34455 0.0 1020713
15:00+25всв34415 0.0 1020719
18:00+24в11451 0.0 1019426
21:00+21сз22580 0.0 102095
26 сентября, вс
вс2600:00+21ссз12600 0.0 102081
03:00+20с22600 0.0 102076
06:00+20св11560 0.0 101972
09:00+23св22440 0.0 1020178
12:00+27св33340 0.0 1020551
15:00+27всв23370 0.0 1019598
18:00+26св11400 0.0 1017443
21:00+22з33700 0.0 101869
27 сентября, пн
пн2700:00+22з34760 0.0 1017114
03:00+21зсз33770 0.0 101682
06:00+21ссз22590 0.0 101563
09:00+24сз22440 0.0 1016135
12:00+28ссв12315 0.0 1016622
15:00+29зюз11310 0.0 1015732
18:00+26з43550 0.0 1014376
21:00+22зюз46820 0.0 1014217